Location: Piotrkow Trybunalski
(51.4000°N, 19.6830°E)
Time: 05:10:32
(UTC+02:00)

A-11 Canister half - Pass Details

Date: 31 January 2023
Orbit: 1526 x 1682 km, 47.3° (Epoch: 25 March)

Event Time Altitude Azimuth Distance (km) Brightness Sun altitude
Rises 09:01:22 0° 261° (W) 4,682 11.2 11.5°
Reaches altitude 10° 09:04:23 10° 259° (W) 3,708 10.8 11.8°
Maximum altitude 09:13:40 70° 179° (S) 1,642 9.7 12.7°
Drops below altitude 10° 09:23:14 10° 98° (E) 3,810 11.9 13.7°
Sets 09:26:23 0° 96° (E) 4,817 12.3 13.9°
